START_TIME,STEP,MOV.,H8,t_acc.,H43,t_acc.,M25,t_acc.,H9,t_acc.
1981-08-28 12:00:30.210 ,5,0,0.,12.0,0.,12.0,0.,12.0,0.,12.0
1981-08-28 12:00:42.210 ,5,0,0.,12.0,0.,12.0,0.,12.0,0.,12.0
1981-08-28 12:00:54.210 ,4,0,0.,12.0,0.,12.0,0.,12.0,0.,12.0
1981-08-28 12:01:06.210 ,4,0,0.,12.0,0.,12.0,0.,12.0,0.,12.0
1981-08-28 12:01:18.210 ,0,0,0.,12.0,0.,12.0,0.,12.0,0.,12.0
1981-08-28 12:01:30.210 ,0,0,,0,,0,,0,,0
1981-08-28 12:01:42.210 ,3,0,0.,12.0,0.,12.0,0.,12.0,0.,12.0
1981-08-28 12:01:54.210 ,3,0,0.,12.0,0.,12.0,0.,12.0,0.,12.0
1981-08-28 12:02:06.210 ,3,0,0.,12.0,0.,12.0,0.,12.0,0.,12.0
1981-08-28 12:02:18.210 ,3,0,0.,12.0,0.,12.0,0.,12.0,0.,12.0
1981-08-28 12:02:30.210 ,2,0,0.,12.0,0.,12.0,0.,12.0,0.,12.0
1981-08-28 12:02:42.210 ,2,0,0.,12.0,0.,12.0,0.,12.0,0.,12.0
1981-08-28 12:02:54.210 ,2,0,0.,12.0,0.,12.0,0.,12.0,0.,12.0
1981-08-28 12:03:06.210 ,2,0,0.,12.0,0.,12.0,0.,12.0,0.,12.0
1981-08-28 12:03:18.210 ,1,0,0.,12.0,0.,12.0,0.,12.0,0.,12.0
1981-08-28 12:03:30.210 ,1,0,0.,12.0,0.,12.0,0.,12.0,0.,12.0
1981-08-28 12:03:42.210 ,1,0,0.,12.0,0.,12.0,0.,12.0,0.,12.0
1981-08-28 12:03:54.210 ,1,0,0.,12.0,0.,12.0,0.,12.0,0.,12.0
1981-08-28 12:04:06.210 ,0,0,0.,12.0,0.,12.0,0.,12.0,0.,12.0
1981-08-28 12:04:18.210 ,0,0,0.,12.0,0.,12.0,0.,12.0,0.,12.0
1981-08-28 12:04:30.210 ,0,0,0.,12.0,0.,12.0,0.,12.0,0.,12.0
1981-08-28 12:04:42.210 ,0,0,0.,12.0,0.,12.0,0.,12.0,0.,12.0
1981-08-28 12:04:54.210 ,0,0,0.,12.0,0.,12.0,0.,12.0,0.,12.0
1981-08-28 12:05:06.210 ,0,0,0.,12.0,0.,12.0,0.,12.0,0.,12.0
1981-08-28 12:05:18.210 ,0,0,0.,12.0,0.,12.0,0.,12.0,0.,12.0
1981-08-28 12:05:30.210 ,0,0,0.,12.0,0.,12.0,0.,12.0,0.,12.0
1981-08-28 12:05:42.210 ,1,0,0.,12.0,0.,12.0,0.,12.0,0.,12.0
1981-08-28 12:05:54.210 ,1,0,0.,12.0,0.,12.0,0.,12.0,0.,12.0
1981-08-28 12:06:06.210 ,1,0,0.,12.0,0.,12.0,0.,12.0,0.,12.0
1981-08-28 12:06:18.210 ,1,0,0.,12.0,0.,12.0,0.,12.0,0.,12.0
1981-08-28 12:06:30.210 ,2,0,0.,12.0,0.,12.0,0.,12.0,0.,12.0
1981-08-28 12:06:42.210 ,2,0,0.,12.0,0.,12.0,0.,12.0,0.,12.0
1981-08-28 12:06:54.210 ,2,0,0.,12.0,0.,12.0,0.,12.0,0.,12.0
1981-08-28 12:07:06.210 ,2,0,0.,12.0,0.,12.0,0.,12.0,0.,12.0
1981-08-28 12:07:18.210 ,3,0,0.,12.0,0.,12.0,0.,12.0,0.,12.0
1981-08-28 12:07:30.210 ,3,0,0.,12.0,0.,12.0,0.,12.0,0.,12.0
1981-08-28 12:07:42.210 ,3,0,0.,12.0,0.,12.0,0.,12.0,0.,12.0
1981-08-28 12:07:54.210 ,3,0,0.,12.0,0.,12.0,0.,12.0,0.,12.0
1981-08-28 12:08:06.210 ,4,0,0.,12.0,0.,12.0,0.,12.0,0.,12.0
1981-08-28 12:08:18.210 ,4,0,0.,12.0,0.,12.0,0.,12.0,0.,12.0
1981-08-28 12:08:30.210 ,0,0,0.,12.0,0.,12.0,0.,12.0,0.,12.0
1981-08-28 12:08:42.210 ,0,0,0.,12.0,0.,12.0,0.,12.0,0.,12.0
1981-08-28 12:12:09.210 ,0,0,0.,12.0,0.,12.0,0.,12.0,0.,12.0
1981-08-28 12:12:21.210 ,0,0,0.,12.0,0.,12.0,0.,12.0,0.,12.0
1981-08-28 12:12:30.210 ,4,0,0.,12.0,0.,12.0,0.,12.0,0.,12.0
1981-08-28 12:12:42.210 ,4,0,0.,12.0,0.,12.0,0.,12.0,0.,12.0
1981-08-28 12:12:54.210 ,3,0,0.,12.0,0.,12.0,0.,12.0,0.,12.0
1981-08-28 12:13:06.210 ,3,0,0.,12.0,0.,12.0,0.,12.0,0.,12.0
1981-08-28 12:13:18.210 ,2,0,0.,12.0,0.,12.0,0.,12.0,0.,12.0
1981-08-28 12:13:30.210 ,2,0,0.,12.0,0.,12.0,0.,12.0,0.,12.0
1981-08-28 12:13:42.210 ,1,0,0.,12.0,0.,12.0,0.,12.0,0.,12.0
1981-08-28 12:13:54.210 ,1,0,0.,12.0,0.,12.0,0.,12.0,0.,12.0
1981-08-28 12:14:06.210 ,0,0,0.,12.0,0.,12.0,0.,12.0,0.,12.0
1981-08-28 12:14:18.210 ,0,0,0.,12.0,0.,12.0,0.,12.0,0.,12.0
1981-08-28 12:14:30.210 ,0,0,0.,12.0,0.,12.0,0.,12.0,0.,12.0
1981-08-28 12:14:42.210 ,0,0,0.,12.0,0.,12.0,0.,12.0,0.,12.0
1981-08-28 12:14:54.210 ,1,0,0.,12.0,0.,12.0,0.,12.0,0.,12.0
1981-08-28 12:15:06.210 ,1,0,0.,12.0,0.,12.0,0.,12.0,0.,12.0
1981-08-28 12:15:18.210 ,2,0,0.,12.0,0.,12.0,0.,12.0,0.,12.0
1981-08-28 12:15:30.210 ,2,0,0.,12.0,0.,12.0,0.,12.0,0.,12.0
1981-08-28 12:15:42.210 ,3,0,0.,12.0,0.,12.0,0.,12.0,0.,12.0
1981-08-28 12:15:54.210 ,3,0,0.,12.0,0.,12.0,0.,12.0,0.,12.0
1981-08-28 12:16:06.210 ,4,0,0.,12.0,0.,12.0,0.,12.0,0.,12.0
1981-08-28 12:16:18.210 ,4,0,0.,12.0,0.,12.0,0.,12.0,0.,12.0
1981-08-28 12:16:30.210 ,5,0,0.,12.0,0.,12.0,0.,12.0,0.,12.0
1981-08-28 12:16:42.210 ,5,0,0.,12.0,0.,12.0,0.,12.0,0.,12.0
1981-08-28 12:16:54.210 ,6,0,0.,12.0,0.,12.0,0.,12.0,0.,12.0
1981-08-28 12:17:06.210 ,6,0,0.,12.0,0.,12.0,0.,12.0,0.,12.0
1981-08-28 12:17:18.210 ,7,0,0.,12.0,0.,12.0,0.,12.0,0.,12.0
1981-08-28 12:17:30.210 ,7,0,0.,12.0,0.,12.0,0.,12.0,0.,12.0
1981-08-28 12:17:42.210 ,7,0,0.,12.0,0.,12.0,0.,12.0,0.,12.0
1981-08-28 12:17:54.210 ,7,0,0.,12.0,0.,12.0,0.,12.0,0.,12.0
1981-08-28 12:18:06.210 ,7,0,0.,12.0,0.,12.0,0.,12.0,0.,12.0
1981-08-28 12:18:18.210 ,7,0,0.,12.0,0.,12.0,0.,12.0,0.,12.0
1981-08-28 12:18:30.210 ,6,0,0.,12.0,0.,12.0,0.,12.0,0.,12.0
1981-08-28 12:18:42.210 ,6,0,0.,12.0,0.,12.0,0.,12.0,0.,12.0
1981-08-28 12:18:54.210 ,6,0,0.,12.0,0.,12.0,0.,12.0,0.,12.0
1981-08-28 12:19:06.210 ,6,0,0.,12.0,0.,12.0,0.,12.0,0.,12.0
1981-08-28 12:19:18.210 ,5,0,0.,12.0,0.,12.0,0.,12.0,0.,12.0
1981-08-28 12:19:30.210 ,5,0,0.,12.0,0.,12.0,0.,12.0,0.,12.0
1981-08-28 12:19:42.210 ,5,0,0.,12.0,0.,12.0,0.,12.0,0.,12.0
1981-08-28 12:19:54.210 ,5,0,0.,12.0,0.,12.0,0.,12.0,0.,12.0
1981-08-28 12:20:06.210 ,4,0,0.,12.0,0.,12.0,0.,12.0,0.,12.0
1981-08-28 12:20:18.210 ,4,0,0.,12.0,0.,12.0,0.,12.0,0.,12.0
1981-08-28 12:20:30.210 ,4,0,0.,12.0,0.,12.0,0.,12.0,0.,12.0
1981-08-28 12:20:42.210 ,4,0,0.,12.0,0.,12.0,0.,12.0,0.,12.0
1981-08-28 12:20:54.210 ,3,0,0.,12.0,0.,12.0,0.,12.0,0.,12.0
1981-08-28 12:21:06.210 ,3,0,0.,12.0,0.,12.0,0.,12.0,0.,12.0
1981-08-28 12:21:18.210 ,3,0,0.,12.0,0.,12.0,0.,12.0,0.,12.0
1981-08-28 12:21:30.210 ,3,0,0.,12.0,0.,12.0,0.,12.0,0.,12.0
1981-08-28 12:21:42.210 ,2,0,0.,12.0,0.,12.0,0.,12.0,0.,12.0
1981-08-28 12:21:54.210 ,2,0,0.,12.0,0.,12.0,0.,12.0,0.,12.0
1981-08-28 12:22:06.210 ,2,0,0.,12.0,0.,12.0,0.,12.0,0.,12.0
1981-08-28 12:22:18.210 ,2,0,0.,12.0,0.,12.0,0.,12.0,0.,12.0
1981-08-28 12:22:30.210 ,1,0,0.,12.0,0.,12.0,0.,12.0,0.,12.0
1981-08-28 12:22:42.210 ,1,0,0.,12.0,0.,12.0,0.,12.0,0.,12.0
1981-08-28 12:22:54.210 ,1,0,0.,12.0,0.,12.0,0.,12.0,0.,12.0
1981-08-28 12:23:06.210 ,1,0,0.,12.0,0.,12.0,0.,12.0,0.,12.0
1981-08-28 12:23:18.210 ,0,0,0.,12.0,0.,12.0,0.,12.0,0.,12.0
1981-08-28 12:23:30.210 ,0,0,0.,12.0,0.,12.0,0.,12.0,0.,12.0
1981-08-28 12:23:42.210 ,0,0,0.,12.0,0.,12.0,0.,12.0,0.,12.0
1981-08-28 12:23:54.210 ,0,0,0.,12.0,0.,12.0,0.,12.0,0.,12.0
1981-08-28 12:24:06.210 ,0,0,0.,12.0,0.,12.0,0.,12.0,0.,12.0
1981-08-28 12:24:18.210 ,0,0,0.,12.0,0.,12.0,0.,12.0,0.,12.0
1981-08-28 12:24:30.210 ,0,0,0.,12.0,0.,12.0,0.,12.0,0.,12.0
1981-08-28 12:24:42.210 ,0,0,0.,12.0,0.,12.0,0.,12.0,0.,12.0
1981-08-28 12:24:54.210 ,1,0,0.,12.0,0.,12.0,0.,12.0,0.,12.0
1981-08-28 12:25:06.210 ,1,0,0.,12.0,0.,12.0,0.,12.0,0.,12.0
1981-08-28 12:25:18.210 ,1,0,0.,12.0,0.,12.0,0.,12.0,0.,12.0
1981-08-28 12:25:30.210 ,1,0,0.,12.0,0.,12.0,0.,12.0,0.,12.0
1981-08-28 12:25:42.210 ,2,0,0.,12.0,0.,12.0,0.,12.0,0.,12.0
1981-08-28 12:25:54.210 ,2,0,0.,12.0,0.,12.0,0.,12.0,0.,12.0
1981-08-28 12:26:06.210 ,2,0,0.,12.0,0.,12.0,0.,12.0,0.,12.0
1981-08-28 12:26:18.210 ,2,0,0.,12.0,0.,12.0,0.,12.0,0.,12.0
1981-08-28 12:26:30.210 ,3,0,0.,12.0,0.,12.0,0.,12.0,0.,12.0
1981-08-28 12:26:42.210 ,3,0,0.,12.0,0.,12.0,0.,12.0,0.,12.0
1981-08-28 12:26:54.210 ,3,0,0.,12.0,0.,12.0,0.,12.0,0.,12.0
1981-08-28 12:27:06.210 ,3,0,0.,12.0,0.,12.0,0.,12.0,0.,12.0
1981-08-28 12:27:18.210 ,4,0,0.,12.0,0.,12.0,0.,12.0,0.,12.0
1981-08-28 12:27:30.210 ,4,0,0.,12.0,0.,12.0,0.,12.0,0.,12.0
1981-08-28 12:27:42.210 ,4,0,0.,12.0,0.,12.0,0.,12.0,0.,12.0
1981-08-28 12:27:54.210 ,4,0,0.,12.0,0.,12.0,0.,12.0,0.,12.0
1981-08-28 12:28:06.210 ,5,0,0.,12.0,0.,12.0,0.,12.0,0.,12.0
1981-08-28 12:28:18.210 ,5,0,0.,12.0,0.,12.0,0.,12.0,0.,12.0
1981-08-28 12:28:30.210 ,5,0,0.,12.0,0.,12.0,0.,12.0,0.,12.0
1981-08-28 12:28:42.210 ,5,0,0.,12.0,0.,12.0,0.,12.0,0.,12.0
1981-08-28 12:28:54.210 ,6,0,0.,12.0,0.,12.0,0.,12.0,0.,12.0
1981-08-28 12:29:06.210 ,6,0,0.,12.0,0.,12.0,0.,12.0,0.,12.0
1981-08-28 12:29:18.210 ,6,0,0.,12.0,0.,12.0,0.,12.0,0.,12.0
1981-08-28 12:29:30.210 ,6,0,0.,12.0,0.,12.0,0.,12.0,0.,12.0
1981-08-28 12:29:42.210 ,7,0,0.,12.0,0.,12.0,0.,12.0,0.,12.0
1981-08-28 12:29:54.210 ,7,0,0.,12.0,0.,12.0,0.,12.0,0.,12.0
1981-08-28 12:30:06.210 ,7,0,0.,12.0,0.,12.0,0.,12.0,0.,12.0
1981-08-28 12:30:18.210 ,7,0,0.,12.0,0.,12.0,0.,12.0,0.,12.0
1981-08-28 12:30:30.210 ,7,0,0.,12.0,0.,12.0,0.,12.0,0.,12.0
1981-08-28 12:30:42.210 ,7,0,0.,12.0,0.,12.0,0.,12.0,0.,12.0
1981-08-28 12:30:54.210 ,6,0,0.,12.0,0.,12.0,0.,12.0,0.,12.0
1981-08-28 12:31:06.210 ,6,0,0.,12.0,0.,12.0,0.,12.0,0.,12.0
1981-08-28 12:31:18.210 ,5,0,0.,12.0,0.,12.0,0.,12.0,0.,12.0
1981-08-28 12:31:30.210 ,5,0,0.,12.0,0.,12.0,0.,12.0,0.,12.0
1981-08-28 12:31:42.210 ,4,0,0.,12.0,0.,12.0,0.,12.0,0.,12.0
1981-08-28 12:31:54.210 ,4,0,0.,12.0,0.,12.0,0.,12.0,0.,12.0
1981-08-28 12:32:06.210 ,3,0,0.,12.0,0.,12.0,0.,12.0,0.,12.0
1981-08-28 12:32:18.210 ,3,0,0.,12.0,0.,12.0,0.,12.0,0.,12.0
1981-08-28 12:32:30.210 ,2,0,0.,12.0,0.,12.0,0.,12.0,0.,12.0
1981-08-28 12:32:42.210 ,2,0,0.,12.0,0.,12.0,0.,12.0,0.,12.0
1981-08-28 12:32:54.210 ,1,0,0.,12.0,0.,12.0,0.,12.0,0.,12.0
1981-08-28 12:33:06.210 ,1,0,0.,12.0,0.,12.0,0.,12.0,0.,12.0
1981-08-28 12:33:18.210 ,0,0,0.,12.0,0.,12.0,0.,12.0,0.,12.0
1981-08-28 12:33:30.210 ,0,0,0.,12.0,0.,12.0,0.,12.0,0.,12.0
1981-08-28 12:33:42.210 ,0,0,0.,12.0,0.,12.0,0.,12.0,0.,12.0
1981-08-28 12:33:54.210 ,0,0,0.,12.0,0.,12.0,0.,12.0,0.,12.0
1981-08-28 12:34:06.210 ,1,0,0.,12.0,0.,12.0,0.,12.0,0.,12.0
1981-08-28 12:34:18.210 ,1,0,0.,12.0,0.,12.0,0.,12.0,0.,12.0
1981-08-28 12:34:30.210 ,2,0,0.,12.0,0.,12.0,0.,12.0,0.,12.0
1981-08-28 12:34:42.210 ,2,0,0.,12.0,0.,12.0,0.,12.0,0.,12.0
1981-08-28 12:34:54.210 ,3,0,0.,12.0,0.,12.0,0.,12.0,0.,12.0
1981-08-28 12:35:06.210 ,3,0,0.,12.0,0.,12.0,0.,12.0,0.,12.0
1981-08-28 12:35:18.210 ,4,0,0.,12.0,0.,12.0,0.,12.0,0.,12.0
1981-08-28 12:35:30.210 ,4,0,0.,12.0,0.,12.0,0.,12.0,0.,12.0
1981-08-28 12:35:42.210 ,5,0,0.,12.0,0.,12.0,0.,12.0,0.,12.0
1981-08-28 12:35:54.210 ,5,0,0.,12.0,0.,12.0,0.,12.0,0.,12.0
1981-08-28 12:36:06.210 ,6,0,0.,12.0,0.,12.0,0.,12.0,0.,12.0
1981-08-28 12:36:18.210 ,6,0,0.,12.0,0.,12.0,0.,12.0,0.,12.0
1981-08-28 12:36:30.210 ,7,0,0.,12.0,0.,12.0,0.,12.0,0.,12.0
1981-08-28 12:36:42.210 ,7,0,0.,12.0,0.,12.0,0.,12.0,0.,12.0
1981-08-28 12:36:54.210 ,7,0,0.,12.0,0.,12.0,0.,12.0,0.,12.0
1981-08-28 12:37:06.210 ,7,0,0.,12.0,0.,12.0,0.,12.0,0.,12.0
1981-08-28 12:37:18.210 ,7,0,0.,12.0,0.,12.0,0.,12.0,0.,12.0
1981-08-28 12:37:30.210 ,7,0,0.,12.0,0.,12.0,0.,12.0,0.,12.0
1981-08-28 12:37:42.210 ,6,0,0.,12.0,0.,12.0,0.,12.0,0.,12.0
1981-08-28 12:37:54.210 ,6,0,0.,12.0,0.,12.0,0.,12.0,0.,12.0
1981-08-28 12:38:06.210 ,6,0,0.,12.0,0.,12.0,0.,12.0,0.,12.0
1981-08-28 12:38:18.210 ,6,0,0.,12.0,0.,12.0,0.,12.0,0.,12.0
1981-08-28 12:38:30.210 ,5,0,0.,12.0,0.,12.0,0.,12.0,0.,12.0
1981-08-28 12:38:42.210 ,5,0,0.,12.0,0.,12.0,0.,12.0,0.,12.0
1981-08-28 12:38:54.210 ,5,0,0.,12.0,0.,12.0,0.,12.0,0.,12.0
1981-08-28 12:39:06.210 ,5,0,0.,12.0,0.,12.0,0.,12.0,0.,12.0
1981-08-28 12:39:18.210 ,4,0,0.,12.0,0.,12.0,0.,12.0,0.,12.0
1981-08-28 12:39:30.210 ,4,0,0.,12.0,0.,12.0,0.,12.0,0.,12.0
1981-08-28 12:39:42.210 ,4,0,0.,12.0,0.,12.0,0.,12.0,0.,12.0
1981-08-28 12:39:54.210 ,4,0,0.,12.0,0.,12.0,0.,12.0,0.,12.0
1981-08-28 12:40:06.210 ,3,0,0.,12.0,0.,12.0,0.,12.0,0.,12.0
1981-08-28 12:40:18.210 ,3,0,0.,12.0,0.,12.0,0.,12.0,0.,12.0
1981-08-28 12:40:30.210 ,3,0,0.,12.0,0.,12.0,0.,12.0,0.,12.0
1981-08-28 12:40:42.210 ,3,0,0.,12.0,0.,12.0,0.,12.0,0.,12.0
1981-08-28 12:40:54.210 ,2,0,0.,12.0,0.,12.0,0.,12.0,0.,12.0
1981-08-28 12:41:06.210 ,2,0,0.,12.0,0.,12.0,0.,12.0,0.,12.0
1981-08-28 12:41:18.210 ,2,0,0.,12.0,0.,12.0,0.,12.0,0.,12.0
1981-08-28 12:41:30.210 ,2,0,0.,12.0,0.,12.0,0.,12.0,0.,12.0
1981-08-28 12:41:42.210 ,1,0,0.,12.0,0.,12.0,0.,12.0,0.,12.0
1981-08-28 12:41:54.210 ,1,0,0.,12.0,0.,12.0,0.,12.0,0.,12.0
1981-08-28 12:42:06.210 ,1,0,0.,12.0,0.,12.0,0.,12.0,0.,12.0
1981-08-28 12:42:18.210 ,1,0,0.,12.0,0.,12.0,0.,12.0,0.,12.0
1981-08-28 12:42:30.210 ,0,0,0.,12.0,0.,12.0,0.,12.0,0.,12.0
1981-08-28 12:42:42.210 ,0,0,0.,12.0,0.,12.0,0.,12.0,0.,12.0
1981-08-28 12:42:54.210 ,0,0,0.,12.0,0.,12.0,0.,12.0,0.,12.0
1981-08-28 12:43:06.210 ,0,0,0.,12.0,0.,12.0,0.,12.0,0.,12.0
1981-08-28 12:43:18.210 ,0,0,0.,12.0,0.,12.0,0.,12.0,0.,12.0
1981-08-28 12:43:30.210 ,0,0,0.,12.0,0.,12.0,0.,12.0,0.,12.0
1981-08-28 12:43:42.210 ,0,0,0.,12.0,0.,12.0,0.,12.0,0.,12.0
1981-08-28 12:43:54.210 ,0,0,0.,12.0,0.,12.0,0.,12.0,0.,12.0
1981-08-28 12:44:06.210 ,1,0,0.,12.0,0.,12.0,0.,12.0,0.,12.0
1981-08-28 12:44:18.210 ,1,0,0.,12.0,0.,12.0,0.,12.0,0.,12.0
1981-08-28 12:44:30.210 ,1,0,0.,12.0,0.,12.0,0.,12.0,0.,12.0
1981-08-28 12:44:42.210 ,1,0,0.,12.0,0.,12.0,0.,12.0,0.,12.0
1981-08-28 12:44:54.210 ,2,0,0.,12.0,0.,12.0,0.,12.0,0.,12.0
1981-08-28 12:45:06.210 ,2,0,0.,12.0,0.,12.0,0.,12.0,0.,12.0
1981-08-28 12:45:18.210 ,2,0,0.,12.0,0.,12.0,0.,12.0,0.,12.0
1981-08-28 12:45:30.210 ,2,0,0.,12.0,0.,12.0,0.,12.0,0.,12.0
1981-08-28 12:45:42.210 ,3,0,0.,12.0,0.,12.0,0.,12.0,0.,12.0
1981-08-28 12:45:54.210 ,3,0,0.,12.0,0.,12.0,0.,12.0,0.,12.0
1981-08-28 12:46:06.210 ,3,0,0.,12.0,0.,12.0,0.,12.0,0.,12.0
1981-08-28 12:46:18.210 ,3,0,0.,12.0,0.,12.0,0.,12.0,0.,12.0
1981-08-28 12:46:30.210 ,4,0,0.,12.0,0.,12.0,0.,12.0,0.,12.0
1981-08-28 12:46:42.210 ,4,0,0.,12.0,0.,12.0,0.,12.0,0.,12.0
1981-08-28 12:46:54.210 ,4,0,0.,12.0,0.,12.0,0.,12.0,0.,12.0
1981-08-28 12:47:06.210 ,4,0,0.,12.0,0.,12.0,0.,12.0,0.,12.0
1981-08-28 12:47:18.210 ,5,0,0.,12.0,0.,12.0,0.,12.0,0.,12.0
1981-08-28 12:47:30.210 ,5,0,0.,12.0,0.,12.0,0.,12.0,0.,12.0
1981-08-28 12:47:42.210 ,5,0,0.,12.0,0.,12.0,0.,12.0,0.,12.0
1981-08-28 12:47:54.210 ,5,0,0.,12.0,0.,12.0,0.,12.0,0.,12.0
1981-08-28 12:48:06.210 ,6,0,0.,12.0,0.,12.0,0.,12.0,0.,12.0
1981-08-28 12:48:18.210 ,6,0,0.,12.0,0.,12.0,0.,12.0,0.,12.0
1981-08-28 12:48:30.210 ,6,0,0.,12.0,0.,12.0,0.,12.0,0.,12.0
1981-08-28 12:48:42.210 ,6,0,0.,12.0,0.,12.0,0.,12.0,0.,12.0
1981-08-28 12:48:54.210 ,7,0,0.,12.0,0.,12.0,0.,12.0,0.,12.0
1981-08-28 12:49:06.210 ,7,0,0.,12.0,0.,12.0,0.,12.0,0.,12.0
1981-08-28 12:49:18.210 ,7,0,0.,12.0,0.,12.0,0.,12.0,0.,12.0
1981-08-28 12:49:30.210 ,7,0,0.,12.0,0.,12.0,0.,12.0,0.,12.0
1981-08-28 12:49:42.210 ,7,0,0.,12.0,0.,12.0,0.,12.0,0.,12.0
1981-08-28 12:49:54.210 ,7,0,0.,12.0,0.,12.0,0.,12.0,0.,12.0
1981-08-28 12:50:06.210 ,6,0,0.,12.0,0.,12.0,0.,12.0,0.,12.0
1981-08-28 12:50:18.210 ,6,0,0.,12.0,0.,12.0,0.,12.0,0.,12.0
1981-08-28 12:50:30.210 ,5,0,0.,12.0,0.,12.0,0.,12.0,0.,12.0
1981-08-28 12:50:42.210 ,5,0,0.,12.0,0.,12.0,0.,12.0,0.,12.0
1981-08-28 12:50:54.210 ,4,0,0.,12.0,0.,12.0,0.,12.0,0.,12.0
1981-08-28 12:51:06.210 ,4,0,0.,12.0,0.,12.0,0.,12.0,0.,12.0
1981-08-28 12:51:18.210 ,3,0,0.,12.0,0.,12.0,0.,12.0,0.,12.0
1981-08-28 12:51:30.210 ,3,0,0.,12.0,0.,12.0,0.,12.0,0.,12.0
1981-08-28 12:51:42.210 ,2,0,0.,12.0,0.,12.0,0.,12.0,0.,12.0
1981-08-28 12:51:54.210 ,2,0,0.,12.0,0.,12.0,0.,12.0,0.,12.0
1981-08-28 12:52:06.210 ,1,0,0.,12.0,0.,12.0,0.,12.0,0.,12.0
1981-08-28 12:52:18.210 ,1,0,0.,12.0,0.,12.0,0.,12.0,0.,12.0
1981-08-28 12:52:30.210 ,0,0,0.,12.0,0.,12.0,0.,12.0,0.,12.0
1981-08-28 12:52:42.210 ,0,0,0.,12.0,0.,12.0,0.,12.0,0.,12.0
1981-08-28 12:52:54.210 ,0,0,0.,12.0,0.,12.0,0.,12.0,0.,12.0
1981-08-28 12:53:06.210 ,0,0,0.,12.0,0.,12.0,0.,12.0,0.,12.0
1981-08-28 12:53:18.210 ,1,0,0.,12.0,0.,12.0,0.,12.0,0.,12.0
1981-08-28 12:53:30.210 ,1,0,0.,12.0,0.,12.0,0.,12.0,0.,12.0
1981-08-28 12:53:42.210 ,2,0,0.,12.0,0.,12.0,0.,12.0,0.,12.0
1981-08-28 12:53:54.210 ,2,0,0.,12.0,0.,12.0,0.,12.0,0.,12.0
1981-08-28 12:54:06.210 ,3,0,0.,12.0,0.,12.0,0.,12.0,0.,12.0
1981-08-28 12:54:18.210 ,3,0,0.,12.0,0.,12.0,0.,12.0,0.,12.0
1981-08-28 12:54:30.210 ,4,0,0.,12.0,0.,12.0,0.,12.0,0.,12.0
1981-08-28 12:54:42.210 ,4,0,0.,12.0,0.,12.0,0.,12.0,0.,12.0
1981-08-28 12:54:54.210 ,5,0,0.,12.0,0.,12.0,0.,12.0,0.,12.0
1981-08-28 12:55:06.210 ,5,0,0.,12.0,0.,12.0,0.,12.0,0.,12.0
1981-08-28 12:55:18.210 ,6,0,0.,12.0,0.,12.0,0.,12.0,0.,12.0
1981-08-28 12:55:30.210 ,6,0,0.,12.0,0.,12.0,0.,12.0,0.,12.0
1981-08-28 12:55:42.210 ,7,0,0.,12.0,0.,12.0,0.,12.0,0.,12.0
1981-08-28 12:55:54.210 ,7,0,0.,12.0,0.,12.0,0.,12.0,0.,12.0
1981-08-28 12:56:06.210 ,7,0,0.,12.0,0.,12.0,0.,12.0,0.,12.0
1981-08-28 12:56:18.210 ,7,0,0.,12.0,0.,12.0,0.,12.0,0.,12.0
1981-08-28 12:56:30.210 ,7,0,0.,12.0,0.,12.0,0.,12.0,0.,12.0
1981-08-28 12:56:42.210 ,7,0,0.,12.0,0.,12.0,0.,12.0,0.,12.0
1981-08-28 12:56:54.210 ,6,0,0.,12.0,0.,12.0,0.,12.0,0.,12.0
1981-08-28 12:57:06.210 ,6,0,0.,12.0,0.,12.0,0.,12.0,0.,12.0
1981-08-28 12:57:18.210 ,0,0,0.,12.0,0.,12.0,0.,12.0,0.,12.0
1981-08-28 12:57:30.210 ,0,0,0.,12.0,0.,12.0,0.,12.0,0.,12.0
1981-08-28 12:57:42.210 ,5,0,0.,12.0,0.,12.0,0.,12.0,0.,12.0
1981-08-28 12:57:54.210 ,5,0,0.,12.0,0.,12.0,0.,12.0,0.,12.0
1981-08-28 12:58:06.210 ,5,0,0.,12.0,0.,12.0,0.,12.0,0.,12.0
1981-08-28 12:58:18.210 ,5,0,0.,12.0,0.,12.0,0.,12.0,0.,12.0
1981-08-28 12:58:30.210 ,4,0,0.,12.0,0.,12.0,0.,12.0,0.,12.0
1981-08-28 12:58:42.210 ,4,0,0.,12.0,0.,12.0,0.,12.0,0.,12.0
1981-08-28 12:58:54.210 ,4,0,0.,12.0,0.,12.0,0.,12.0,0.,12.0
1981-08-28 12:59:06.210 ,4,0,0.,12.0,0.,12.0,0.,12.0,0.,12.0
1981-08-28 12:59:18.210 ,3,0,0.,12.0,0.,12.0,0.,12.0,0.,12.0
1981-08-28 12:59:30.210 ,3,0,0.,12.0,0.,12.0,0.,12.0,0.,12.0
1981-08-28 12:59:42.210 ,3,0,0.,12.0,0.,12.0,0.,12.0,0.,12.0
1981-08-28 12:59:54.210 ,3,0,0.,12.0,0.,12.0,0.,12.0,0.,12.0
1981-08-28 13:00:06.210 ,2,0,0.,12.0,0.,12.0,0.,12.0,0.,12.0
1981-08-28 13:00:18.210 ,2,0,0.,12.0,0.,12.0,0.,12.0,0.,12.0
1981-08-28 13:00:30.210 ,2,0,0.,12.0,0.,12.0,0.,12.0,0.,12.0
1981-08-28 13:00:42.210 ,2,0,0.,12.0,0.,12.0,0.,12.0,0.,12.0
1981-08-28 13:00:54.210 ,1,0,0.,12.0,0.,12.0,0.,12.0,0.,12.0
1981-08-28 13:01:06.210 ,1,0,0.,12.0,0.,12.0,0.,12.0,0.,12.0
1981-08-28 13:01:18.210 ,1,0,0.,12.0,0.,12.0,0.,12.0,0.,12.0
1981-08-28 13:01:30.210 ,1,0,0.,12.0,0.,12.0,0.,12.0,0.,12.0
1981-08-28 13:01:42.210 ,0,0,0.,12.0,0.,12.0,0.,12.0,0.,12.0
1981-08-28 13:01:54.210 ,0,0,0.,12.0,0.,12.0,0.,12.0,0.,12.0
1981-08-28 13:02:06.210 ,0,0,0.,12.0,0.,12.0,0.,12.0,0.,12.0
1981-08-28 13:02:18.210 ,0,0,0.,12.0,0.,12.0,0.,12.0,0.,12.0
1981-08-28 13:02:30.210 ,0,0,0.,12.0,0.,12.0,0.,12.0,0.,12.0
1981-08-28 13:02:42.210 ,0,0,0.,12.0,0.,12.0,0.,12.0,0.,12.0
1981-08-28 13:02:54.210 ,0,0,0.,12.0,0.,12.0,0.,12.0,0.,12.0
1981-08-28 13:03:06.210 ,0,0,0.,12.0,0.,12.0,0.,12.0,0.,12.0
1981-08-28 13:03:18.210 ,1,0,0.,12.0,0.,12.0,0.,12.0,0.,12.0
1981-08-28 13:03:30.210 ,1,0,0.,12.0,0.,12.0,0.,12.0,0.,12.0
1981-08-28 13:03:42.210 ,1,0,0.,12.0,0.,12.0,0.,12.0,0.,12.0
1981-08-28 13:03:54.210 ,1,0,0.,12.0,0.,12.0,0.,12.0,0.,12.0
1981-08-28 13:04:06.210 ,2,0,0.,12.0,0.,12.0,0.,12.0,0.,12.0
1981-08-28 13:04:18.210 ,2,0,0.,12.0,0.,12.0,0.,12.0,0.,12.0
1981-08-28 13:04:30.200 ,2,0,0.,12.0,0.,12.0,0.,12.0,0.,12.0
1981-08-28 13:04:42.200 ,2,0,0.,12.0,0.,12.0,0.,12.0,0.,12.0
1981-08-28 13:04:54.200 ,3,0,0.,12.0,0.,12.0,0.,12.0,0.,12.0
1981-08-28 13:05:06.200 ,3,0,0.,12.0,0.,12.0,0.,12.0,0.,12.0
1981-08-28 13:05:18.200 ,3,0,0.,12.0,0.,12.0,0.,12.0,0.,12.0
1981-08-28 13:05:30.200 ,3,0,0.,12.0,0.,12.0,0.,12.0,0.,12.0
1981-08-28 13:05:42.200 ,4,0,0.,12.0,0.,12.0,0.,12.0,0.,12.0
1981-08-28 13:05:54.200 ,4,0,0.,12.0,0.,12.0,0.,12.0,0.,12.0
1981-08-28 13:06:06.200 ,4,0,0.,12.0,0.,12.0,0.,12.0,0.,12.0
1981-08-28 13:06:18.200 ,4,0,0.,12.0,0.,12.0,0.,12.0,0.,12.0
1981-08-28 13:06:30.200 ,5,0,0.,12.0,0.,12.0,0.,12.0,0.,12.0
1981-08-28 13:06:42.200 ,5,0,0.,12.0,0.,12.0,0.,12.0,0.,12.0
1981-08-28 13:06:54.200 ,5,0,0.,12.0,0.,12.0,0.,12.0,0.,12.0
1981-08-28 13:07:06.200 ,5,0,0.,12.0,0.,12.0,0.,12.0,0.,12.0
1981-08-28 13:07:18.200 ,6,0,0.,12.0,0.,12.0,0.,12.0,0.,12.0
1981-08-28 13:07:30.200 ,6,0,0.,12.0,0.,12.0,0.,12.0,0.,12.0
1981-08-28 13:07:42.200 ,6,0,0.,12.0,0.,12.0,0.,12.0,0.,12.0
1981-08-28 13:07:54.200 ,6,0,0.,12.0,0.,12.0,0.,12.0,0.,12.0
1981-08-28 13:08:06.200 ,7,0,0.,12.0,0.,12.0,0.,12.0,0.,12.0
1981-08-28 13:08:18.200 ,7,0,0.,12.0,0.,12.0,0.,12.0,0.,12.0
1981-08-28 13:08:30.200 ,7,0,0.,12.0,0.,12.0,0.,12.0,0.,12.0
1981-08-28 13:08:42.200 ,7,0,0.,12.0,0.,12.0,0.,12.0,0.,12.0
1981-08-28 13:08:54.200 ,7,0,0.,12.0,0.,12.0,0.,12.0,0.,12.0
1981-08-28 13:09:06.200 ,7,0,0.,12.0,0.,12.0,0.,12.0,0.,12.0
1981-08-28 13:09:18.200 ,6,0,0.,12.0,0.,12.0,0.,12.0,0.,12.0
1981-08-28 13:09:30.200 ,6,0,0.,12.0,0.,12.0,0.,12.0,0.,12.0
1981-08-28 13:09:42.200 ,0,0,0.,12.0,0.,12.0,0.,12.0,0.,12.0
1981-08-28 13:09:54.200 ,0,0,0.,12.0,0.,12.0,0.,12.0,0.,12.0
1981-08-28 13:10:06.200 ,4,0,0.,12.0,0.,12.0,0.,12.0,0.,12.0
1981-08-28 13:10:18.200 ,4,0,0.,12.0,0.,12.0,0.,12.0,0.,12.0
1981-08-28 13:10:30.200 ,3,0,0.,12.0,0.,12.0,0.,12.0,0.,12.0
1981-08-28 13:10:42.200 ,3,0,0.,12.0,0.,12.0,0.,12.0,0.,12.0
1981-08-28 13:10:54.200 ,2,0,0.,12.0,0.,12.0,0.,12.0,0.,12.0
1981-08-28 13:11:06.200 ,2,0,0.,12.0,0.,12.0,0.,12.0,0.,12.0
1981-08-28 13:11:18.200 ,1,0,0.,12.0,0.,12.0,0.,12.0,0.,12.0
1981-08-28 13:11:30.200 ,1,0,0.,12.0,0.,12.0,0.,12.0,0.,12.0
1981-08-28 13:11:42.200 ,0,0,0.,12.0,0.,12.0,0.,12.0,0.,12.0
1981-08-28 13:11:54.200 ,0,0,0.,12.0,0.,12.0,0.,12.0,0.,12.0
1981-08-28 13:12:06.200 ,0,0,0.,12.0,0.,12.0,0.,12.0,0.,12.0
1981-08-28 13:12:18.200 ,0,0,0.,12.0,0.,12.0,0.,12.0,0.,12.0
1981-08-28 13:12:30.200 ,1,0,0.,12.0,0.,12.0,0.,12.0,0.,12.0
1981-08-28 13:12:42.200 ,1,0,0.,12.0,0.,12.0,0.,12.0,0.,12.0
1981-08-28 13:12:54.200 ,2,0,0.,12.0,0.,12.0,0.,12.0,0.,12.0
1981-08-28 13:13:06.200 ,2,0,0.,12.0,0.,12.0,0.,12.0,0.,12.0
1981-08-28 13:13:18.200 ,3,0,0.,12.0,0.,12.0,0.,12.0,0.,12.0
1981-08-28 13:13:30.200 ,3,0,0.,12.0,0.,12.0,0.,12.0,0.,12.0
1981-08-28 13:13:42.200 ,4,0,0.,12.0,0.,12.0,0.,12.0,0.,12.0
1981-08-28 13:13:54.200 ,4,0,0.,12.0,0.,12.0,0.,12.0,0.,12.0
1981-08-28 13:14:06.200 ,5,0,0.,12.0,0.,12.0,0.,12.0,0.,12.0
1981-08-28 13:14:18.200 ,5,0,0.,12.0,0.,12.0,0.,12.0,0.,12.0
1981-08-28 13:14:30.200 ,6,0,0.,12.0,0.,12.0,0.,12.0,0.,12.0
1981-08-28 13:14:42.200 ,6,0,0.,12.0,0.,12.0,0.,12.0,0.,12.0
1981-08-28 13:14:54.200 ,7,0,0.,12.0,0.,12.0,0.,12.0,0.,12.0
1981-08-28 13:15:06.200 ,7,0,0.,12.0,0.,12.0,0.,12.0,0.,12.0
1981-08-28 13:15:18.200 ,7,0,0.,12.0,0.,12.0,0.,12.0,0.,12.0
1981-08-28 13:15:30.200 ,7,0,0.,12.0,0.,12.0,0.,12.0,0.,12.0
1981-08-28 13:15:42.200 ,7,0,0.,12.0,0.,12.0,0.,12.0,0.,12.0
1981-08-28 13:15:54.200 ,7,0,0.,12.0,0.,12.0,0.,12.0,0.,12.0
1981-08-28 13:16:06.200 ,6,0,0.,12.0,0.,12.0,0.,12.0,0.,12.0
1981-08-28 13:16:18.200 ,6,0,0.,12.0,0.,12.0,0.,12.0,0.,12.0
1981-08-28 13:16:30.200 ,6,0,0.,12.0,0.,12.0,0.,12.0,0.,12.0
1981-08-28 13:16:42.200 ,6,0,0.,12.0,0.,12.0,0.,12.0,0.,12.0
1981-08-28 13:16:54.200 ,5,0,0.,12.0,0.,12.0,0.,12.0,0.,12.0
1981-08-28 13:17:06.200 ,5,0,0.,12.0,0.,12.0,0.,12.0,0.,12.0
1981-08-28 13:17:18.200 ,5,0,0.,12.0,0.,12.0,0.,12.0,0.,12.0
1981-08-28 13:17:30.200 ,5,0,0.,12.0,0.,12.0,0.,12.0,0.,12.0
1981-08-28 13:17:42.200 ,4,0,0.,12.0,0.,12.0,0.,12.0,0.,12.0
1981-08-28 13:17:54.200 ,4,0,0.,12.0,0.,12.0,0.,12.0,0.,12.0
1981-08-28 13:18:06.200 ,4,0,0.,12.0,0.,12.0,0.,12.0,0.,12.0
1981-08-28 13:18:18.200 ,4,0,0.,12.0,0.,12.0,0.,12.0,0.,12.0
1981-08-28 13:18:30.200 ,3,0,0.,12.0,0.,12.0,0.,12.0,0.,12.0
1981-08-28 13:18:42.200 ,3,0,0.,12.0,0.,12.0,0.,12.0,0.,12.0
1981-08-28 13:18:54.200 ,3,0,0.,12.0,0.,12.0,0.,12.0,0.,12.0
1981-08-28 13:19:06.200 ,3,0,0.,12.0,0.,12.0,0.,12.0,0.,12.0
1981-08-28 13:19:18.200 ,2,0,0.,12.0,0.,12.0,0.,12.0,0.,12.0
1981-08-28 13:19:30.200 ,2,0,0.,12.0,0.,12.0,0.,12.0,0.,12.0
1981-08-28 13:19:42.200 ,2,0,0.,12.0,0.,12.0,0.,12.0,0.,12.0
1981-08-28 13:19:54.200 ,2,0,0.,12.0,0.,12.0,0.,12.0,0.,12.0
1981-08-28 13:20:06.200 ,1,0,0.,12.0,0.,12.0,0.,12.0,0.,12.0
1981-08-28 13:20:18.200 ,1,0,0.,12.0,0.,12.0,0.,12.0,0.,12.0
1981-08-28 13:20:30.200 ,1,0,0.,12.0,0.,12.0,0.,12.0,0.,12.0
1981-08-28 13:20:42.200 ,1,0,0.,12.0,0.,12.0,0.,12.0,0.,12.0